Volver al catálogo

THOR ABLESTAR R/B

ActivoLEO
NORAD 47·ROCKET BODY·🇺🇸 United States

Lanzado Jun 22, 1960 desde Cape Canaveral Space Force Station

Loading…

Próximos Pases (próximas 24 horas)

TLE

ActualizadoSource: Space-Track

Época: Sep 5, 2026, 14:03 UTC

1 00047U 60007C   26248.58589659  .00000242  00000-0  76483-4 0  9991
2 00047  66.6646 190.4927 0210577  78.3575 284.1081 14.45378960462425

Sigue THOR ABLESTAR R/B en tiempo real con AllMySat

Download on the App Store